User: anonymous   Login
Location: Unspecified
(0.0000°N, 0.0000°E)
Time: 01:35:15
(UTC+00:00)
Language:

WGS F1 (USA 195) - Orbit

View from above orbital plane
View from above orbital plane
View from above satellite
View from above satellite

Ground track
Ground track

The orbit data is extracted from the following two-line orbital elements,

1 32258U 07046A   17097.65782674 0.00000000  00000-0  00000-0 0    09
2 32258   0.0969  96.8001 0003854  11.3452 348.6895  1.00270000    09
Epoch (UTC): 07 April 2017 15:47:16
Eccentricity: 0.0003854
inclination: 0.0969°
perigee height: 35770 km
apogee height: 35803 km
right ascension of ascending node: 96.8001°
argument of perigee: 11.3452°
revolutions per day: 1.00270000
mean anomaly at epoch: 348.6895°
orbit number at epoch: 0

The dashed part of the orbit path shows where the satellite is in the earth's shadow,  

DLR